Wetbulb
44.62 44.72 43.91 44.12 44.00 44.50 44.59 44.57 44.30 43.77 43.87 44.50 45.14 45.65 45.42 44.80 43.64 39.50 36.74 37.37 34.53 29.69 29.97 34.93 34.94 30.56 29.28 26.87 21.39 26.14 24.64 26.32 24.84 20.75 22.88 22.43 22.85 25.78 24.59 30.07 29.14 24.27 24.05 22.87 25.60 21.10 18.53 31.06 31.43 25.33 29.93 31.28 30.30 28.55
44.21 44.05 43.53 43.89 44.09 44.30 44.33 44.17 44.34 44.02 43.91 44.41 45.02 45.19 45.16 44.37 43.60 40.81 35.46 37.47 36.72 32.45 31.21 34.57 34.94 35.54 34.04 31.72 29.09 28.74 27.74 29.53 28.55 23.08 23.94 24.25 23.18 24.79 27.22 25.10 32.60 24.82 26.82 24.72 24.58 22.84 30.36 32.21 30.70 32.34 31.39 32.84 30.85 29.84
44.04 43.61 43.34 43.18 43.91 44.04 43.90 43.84 43.84 44.08 44.11 44.19 44.74 44.80 44.95 44.78 43.63 40.52 35.45 34.74 33.37 30.05 30.78 32.36 33.38 36.64 37.25 36.23 35.84 28.94 29.64 32.90 29.59 28.95 23.82 22.91 22.04 27.36 24.64 26.79 28.55 31.42 32.72 26.39 26.18 28.32 29.25 30.12 30.59 32.04 29.99 28.45 30.82 32.15
43.08 43.34 43.47 43.45 43.55 43.93 43.58 43.61 43.66 43.61 43.43 43.72 44.36 44.65 44.31 43.94 43.43 40.84 35.97 35.68 34.05 30.62 27.67 30.95 37.69 34.89 38.24 37.12 36.26 35.48 34.75 34.18 32.32 29.79 26.39 21.77 23.58 29.44 27.36 30.20 27.59 29.89 31.20 28.10 26.33 28.30 28.89 29.29 29.13 29.21 28.04 27.81 25.93 25.80
43.24 43.24 43.07 43.44 43.23 43.65 43.30 43.37 43.21 43.37 43.08 43.27 43.93 43.82 43.72 43.39 42.38 39.53 37.31 36.74 37.40 32.34 26.66 28.40 33.08 35.96 38.18 37.17 36.82 36.26 34.81 31.60 28.88 27.08 23.42 23.00 27.45 27.87 31.21 29.18 27.77 31.63 29.05 27.24 24.78 29.58 28.40 28.09 29.48 30.31 27.35 25.57 25.38 23.84
43.17 43.21 43.50 43.23 42.80 43.11 42.96 43.11 42.99 43.30 43.07 43.01 42.85 43.04 42.72 41.29 38.30 32.90 27.66 35.34 39.56 35.70 28.92 24.46 31.26 33.64 35.61 36.92 35.90 34.68 33.63 30.65 29.39 27.89 25.78 26.50 29.45 28.72 24.46 24.87 31.09 32.06 32.26 33.06 30.30 30.48 28.32 29.55 28.43 27.78 24.90 24.36 24.58 23.39
42.78 42.74 42.89 42.92 43.08 43.07 42.84 42.88 42.97 43.28 43.37 43.02 42.37 42.28 42.48 42.25 38.30 32.41 29.25 35.62 41.13 36.58 27.49 24.44 26.76 33.35 37.76 35.66 33.31 32.99 34.87 30.09 29.52 27.66 26.83 27.20 28.42 30.01 26.69 23.62 30.81 31.40 30.95 30.89 31.57 30.26 26.79 26.57 24.47 26.06 25.15 24.36 24.15 21.93
43.07 42.88 42.79 42.86 42.84 42.88 42.89 43.01 43.33 43.48 43.42 42.43 42.18 42.09 42.05 42.61 40.19 37.82 40.88 42.63 38.36 31.93 30.23 22.80 27.60 31.72 37.19 31.55 29.82 30.06 29.14 28.59 28.48 26.59 27.22 27.04 29.10 30.52 23.36 31.09 32.08 32.18 31.96 32.16 29.63 30.11 26.19 25.20 24.60 23.15 23.22 22.47 21.04 19.99
42.31 42.76 42.75 42.63 42.85 42.85 42.59 42.74 43.07 43.22 42.81 41.90 41.18 39.61 35.24 32.86 31.83 37.00 42.63 40.82 37.09 31.56 24.14 21.28 23.37 24.66 34.82 31.05 29.24 28.98 28.58 20.90 28.19 21.82 25.64 27.42 24.37 22.83 27.41 31.41 31.61 32.92 29.63 28.10 28.10 26.80 25.80 24.56 22.63 22.81 22.16 21.28 19.60 18.66
42.79 42.74 42.69 42.58 42.39 42.39 42.47 42.66 42.84 43.09 41.98 39.57 34.42 29.25 22.35 32.41 39.69 39.18 33.62 29.14 28.70 30.08 29.65 22.55 25.52 27.90 29.48 26.75 23.12 25.01 24.32 22.64 21.49 26.92 28.62 27.78 24.32 27.36 27.04 26.26 26.14 27.13 28.11 27.66 24.39 23.19 23.47 22.41 21.88 20.96 19.83 19.58 18.52 15.83
42.94 42.81 42.63 42.38 42.24 42.24 42.52 42.59 42.85 40.65 38.66 32.07 28.14 29.65 34.57 40.08 33.27 29.95 21.50 21.92 25.12 22.99 26.32 25.90 26.56 27.67 31.03 24.13 23.76 24.67 20.49 22.96 21.07 25.53 24.92 20.03 22.30 25.63 25.62 25.47 25.70 26.36 26.67 25.68 26.33 26.86 27.14 24.73 21.90 19.83 18.97 18.39 17.07 15.61
42.87 42.74 41.92 42.25 42.45 42.64 42.37 42.39 40.01 35.07 32.59 32.89 34.57 37.85 35.85 32.07 28.39 23.94 24.45 26.66 24.62 22.40 25.51 24.26 25.65 28.41 33.47 30.89 23.96 27.48 22.32 22.12 17.15 29.55 25.67 13.79 17.34 23.14 24.17 25.11 24.92 24.60 23.74 23.18 23.75 22.86 23.23 23.12 21.86 19.80 17.99 16.13 13.86 12.88
42.88 42.93 42.51 42.38 42.42 42.64 42.30 40.61 40.54 40.87 38.30 34.18 32.32 27.45 27.07 24.98 19.45 20.61 15.90 20.18 20.89 21.75 22.46 23.74 26.20 27.58 29.82 32.05 26.62 28.40 18.91 14.74 28.44 19.71 16.23 16.85 20.57 23.06 23.30 23.49 22.07 21.90 22.19 21.80 20.93 20.89 20.05 18.68 18.11 16.31 11.08 6.04 5.60 3.91
42.49 42.57 42.45 42.34 42.18 42.17 41.64 41.67 40.56 37.61 32.67 25.69 20.88 18.67 20.07 20.31 23.34 17.95 18.60 18.84 21.98 21.80 23.82 24.19 26.59 29.57 23.89 24.27 13.22 13.75 17.97 27.57 20.86 11.36 17.68 14.85 19.94 21.36 22.75 22.41 19.39 13.58 14.08 14.25 11.64 11.04 10.42 10.00 4.29 2.43 2.39 -0.03 1.68 2.92
42.69 42.31 42.20 41.92 41.93 41.76 41.04 40.00 38.41 34.29 27.22 24.96 22.59 18.91 22.37 23.95 26.67 26.46 25.68 28.64 30.11 22.75 24.70 24.94 24.55 25.01 18.56 19.94 25.54 24.91 24.29 16.10 15.54 14.38 14.17 13.29 20.87 21.41 20.47 19.47 16.00 13.38 9.17 8.13 5.31 7.34 4.86 4.30 7.85 3.32 0.42 0.12 2.91 -2.24
41.89 41.00 38.79 41.73 41.55 41.07 39.78 37.14 33.40 30.03 27.47 25.38 26.39 20.14 25.61 26.73 26.72 31.31 31.19 29.92 30.20 23.02 29.37 27.86 22.63 16.32 15.75 17.95 17.90 17.97 21.51 12.87 14.58 12.60 15.70 16.20 18.16 16.99 16.08 14.88 12.02 9.53 8.66 7.33 6.98 7.33 6.85 5.49 6.33 5.78 3.93 3.86 -1.24 -0.26
38.56 33.98 41.44 41.00 40.25 39.48 38.92 31.76 27.85 26.06 23.91 23.62 20.68 24.35 27.25 26.75 25.08 30.65 31.96 31.69 30.04 30.93 20.91 23.13 16.97 16.75 22.29 16.56 17.04 21.01 21.15 14.27 17.81 22.21 19.42 14.76 18.50 14.44 11.77 10.66 9.08 9.92 9.75 9.07 7.58 8.86 7.96 9.11 8.25 12.25 11.30 8.29 9.64 12.37
34.46 39.61 41.18 39.84 36.78 35.39 32.12 30.14 25.82 24.79 19.54 23.31 23.44 21.75 22.35 28.56 30.42 31.18 31.93 32.10 31.50 29.97 26.32 24.10 25.40 18.94 10.95 13.79 12.15 13.09 23.85 22.19 21.54 19.76 11.87 9.63 10.89 9.49 12.82 10.38 10.11 11.38 10.54 9.46 11.19 10.25 10.73 10.66 14.27 12.17 15.65 17.06 17.80 18.07
38.24 39.24 40.36 38.97 34.24 29.17 24.60 27.34 27.37 19.66 19.93 23.60 26.18 25.43 27.44 26.89 30.07 30.78 31.51 32.35 30.85 29.10 27.71 23.31 18.31 15.69 14.88 14.78 16.31 12.37 18.85 19.81 18.81 12.55 8.87 6.19 10.31 12.81 12.18 12.83 12.29 10.71 11.78 12.25 15.72 14.04 13.79 15.94 14.41 13.55 14.44 15.10 12.55 11.29
40.79 40.33 39.89 39.52 36.63 28.56 27.03 25.61 30.55 26.14 20.44 20.67 26.32 25.83 22.48 21.71 25.66 25.26 27.75 30.81 30.87 28.14 25.53 20.07 17.65 15.91 17.76 16.85 18.46 17.90 15.61 17.25 17.89 14.29 11.44 9.25 10.88 13.67 13.31 15.51 14.62 14.16 14.31 15.32 15.03 14.38 15.39 15.47 16.42 16.23 13.61 11.72 9.19 9.58
38.11 37.82 37.77 34.34 31.25 31.94 27.78 26.10 25.31 26.97 26.35 24.95 26.37 26.37 21.46 24.30 22.43 22.39 26.63 30.72 29.65 28.39 24.25 24.22 17.59 16.62 24.98 23.71 21.46 20.25 21.02 21.72 17.94 18.47 15.53 11.94 10.53 15.41 14.85 14.34 16.46 15.18 12.90 10.82 10.42 9.86 9.30 9.19 10.65 12.11 5.75 4.30 2.53 0.46
36.06 37.19 32.55 32.73 27.03 29.52 28.03 27.65 27.13 27.65 25.64 25.97 26.51 26.93 19.55 15.17 21.76 27.17 29.86 27.29 27.50 27.87 22.24 21.40 21.76 23.68 22.61 22.39 20.80 22.55 21.49 21.48 19.54 17.11 15.92 17.06 15.10 14.05 13.55 12.13 14.75 9.12 9.21 7.52 10.88 7.89 10.92 14.16 12.33 9.10 2.15 -2.85 -0.93 -0.60
36.17 32.94 28.61 29.45 20.70 18.45 22.55 28.73 23.13 26.93 20.04 22.51 26.08 22.05 18.93 21.06 23.54 29.52 23.90 27.36 23.91 20.48 20.87 23.45 25.98 27.27 24.13 24.68 23.98 23.65 23.72 21.81 18.64 17.12 16.76 15.69 14.91 13.13 13.02 11.54 12.32 9.73 9.06 10.50 11.85 10.59 9.01 6.51 3.85 -0.41 -2.53 -2.11 -1.55 -7.94
34.49 23.99 18.11 19.03 20.36 17.83 27.50 21.40 27.75 27.25 25.90 24.11 21.08 18.12 19.03 22.60 26.26 21.40 17.25 18.38 18.25 18.91 22.26 24.92 24.45 22.50 22.10 23.03 18.73 18.87 20.05 20.16 17.72 16.47 16.50 17.36 15.03 11.83 14.14 12.92 12.03 11.47 13.01 14.36 12.73 8.06 4.59 -1.76 -1.66 0.81 -6.87 -11.55 -15.90 -13.54
18.04 15.76 15.71 8.74 21.20 18.78 14.54 14.03 17.14 21.34 18.19 18.32 15.65 14.53 18.67 22.01 14.69 12.36 15.09 14.48 12.60 10.69 14.01 21.04 21.80 21.06 18.22 13.97 14.90 16.50 21.00 20.46 18.26 16.24 13.82 16.71 14.16 14.40 13.53 13.33 12.23 11.67 11.49 8.04 0.05 -2.30 -5.75 -5.79 -9.20 -9.92 -9.92 -13.54 -4.54 -9.37
9.22 13.47 13.09 12.23 12.80 17.96 16.86 11.81 9.66 13.93 13.80 16.76 14.40 17.08 16.30 14.53 15.04 12.95 15.53 15.34 10.36 8.84 7.47 13.76 16.04 17.20 17.90 18.64 16.94 15.86 15.63 19.33 19.79 14.94 13.73 16.90 17.07 15.67 11.96 9.63 9.30 8.23 7.29 3.67 2.15 -1.03 -3.25 -9.74 -11.00 -8.65 -11.37 -10.10 -11.00 -13.91
11.40 9.70 19.70 23.85 23.67 23.83 17.36 18.69 19.24 13.26 10.93 10.79 20.53 15.24 11.55 6.93 4.57 11.61 18.01 21.57 21.70 22.32 21.25 23.41 24.73 21.24 18.85 16.92 16.27 15.36 15.13 15.25 15.81 14.39 12.68 12.37 12.31 13.32 12.90 10.52 7.87 8.59 6.42 3.47 0.74 -0.88 -4.20 -10.46 -12.64 -13.36 -14.81 -16.08 -17.17 -18.07
18.60 15.85 11.53 14.23 20.60 20.86 9.48 9.83 10.06 8.93 10.56 16.06 14.51 9.75 8.32 10.17 11.42 8.80 11.01 14.58 22.32 20.16 17.67 18.10 19.62 19.50 17.58 15.01 13.84 12.18 11.10 11.52 11.44 11.56 11.70 10.28 7.87 6.39 7.29 8.23 8.66 8.40 0.81 -1.34 -3.44 -5.00 -5.50 -7.95 -12.27 -16.08 -15.72 -16.26 -20.43 -23.88
15.75 19.50 18.59 13.27 13.89 14.23 13.61 13.77 12.83 12.30 15.56 15.04 10.99 9.15 7.72 10.69 5.85 6.90 9.63 16.21 21.75 21.34 14.51 12.65 11.18 13.05 12.35 11.98 12.82 13.51 13.19 13.78 12.32 8.72 3.99 0.65 1.56 5.33 2.15 3.47 1.57 -0.53 -1.96 -0.37 4.95 -0.50 -4.50 -9.03 -10.84 -12.48 -17.57 -19.91 -27.32 -32.22
19.42 23.76 19.46 17.98 18.66 18.05 15.89 16.32 9.23 5.28 11.35 10.52 11.76 10.45 8.64 5.31 4.68 9.87 13.08 13.27 18.22 18.44 15.53 9.82 12.07 8.84 10.76 10.86 10.03 9.89 9.00 6.85 7.23 9.85 6.97 3.91 5.97 4.84 0.27 1.14 -1.48 -7.74 -6.11 1.22 1.44 2.09 -0.49 -11.95 -11.59 -21.06 -24.28 -25.54 -29.68 -30.40
21.05 18.84 15.87 16.08 15.50 14.71 14.03 11.14 9.33 9.53 6.22 5.66 2.87 6.62 7.05 6.57 8.34 8.41 9.00 7.52 7.20 9.03 12.58 9.31 9.78 11.52 12.77 12.59 12.15 11.20 8.71 6.61 5.25 5.98 7.38 7.80 5.91 1.99 -1.00 -2.24 -8.47 -7.07 -4.48 -4.70 -6.98 -11.80 -18.44 -24.06 -27.86 -27.86 -26.42 -28.77 -32.58 -34.03
15.71 14.38 12.11 9.24 10.47 15.82 16.61 13.56 10.17 8.55 5.90 0.92 0.53 -0.70 2.10 3.54 5.79 5.78 7.13 5.90 8.55 5.41 3.98 6.51 11.01 8.01 11.67 11.80 9.85 8.32 8.36 6.16 5.58 6.42 6.29 4.77 1.07 -2.09 -3.37 -5.13 -6.05 -4.03 -5.44 -7.55 -9.71 -13.82 -15.16 -20.85 -28.59 -31.31 -32.03 -32.40 -33.85 -34.39
9.59 9.23 10.09 8.84 8.55 9.96 13.54 15.67 14.37 7.67 1.61 -1.03 -1.76 -2.55 -0.52 6.55 6.17 1.77 2.24 6.74 6.38 9.14 8.65 6.95 8.09 7.69 7.65 7.42 6.05 4.85 4.39 3.97 4.73 6.34 3.14 0.94 -2.44 -3.39 -6.05 -6.08 -4.79 -5.89 -8.06 -10.31 -14.42 -17.35 -20.55 -25.36 -30.77 -32.40 -33.85 -33.67 -34.21 -35.30
MSLP
1000.62 1001.20 1001.67 1002.02 1002.44 1002.92 1003.56 1004.30 1004.92 1005.52 1005.94 1006.36 1006.90 1007.40 1007.74 1008.13 1008.54 1008.97 1011.58 1011.34 1011.57 1013.91 1015.36 1015.21 1015.22 1015.78 1016.47 1017.04 1017.86 1018.28 1018.52 1018.51 1018.79 1019.37 1019.49 1019.22 1018.73 1017.82 1017.26 1016.82 1016.56 1016.97 1017.11 1017.32 1017.38 1018.00 1019.08 1019.28 1018.83 1019.35 1020.60 1020.98 1021.23 1021.58
1001.31 1001.90 1002.41 1002.90 1003.35 1003.98 1004.56 1005.13 1005.60 1005.92 1006.53 1006.98 1007.51 1007.93 1008.39 1008.78 1009.22 1009.43 1011.52 1011.97 1012.17 1013.64 1015.69 1015.77 1015.53 1015.52 1015.63 1016.20 1017.24 1018.12 1018.53 1018.78 1019.37 1020.06 1020.21 1019.89 1019.39 1018.56 1017.87 1017.21 1017.22 1017.74 1018.24 1018.56 1019.43 1020.00 1020.51 1020.70 1020.66 1021.15 1021.32 1021.52 1022.02 1022.29
1001.89 1002.59 1003.26 1003.86 1004.17 1004.75 1005.24 1005.81 1006.48 1006.90 1007.38 1007.82 1008.53 1008.78 1008.97 1009.36 1009.71 1009.89 1011.76 1012.56 1013.00 1014.81 1015.88 1015.72 1015.78 1015.92 1015.96 1016.18 1016.40 1017.28 1018.29 1018.58 1019.30 1019.70 1020.21 1020.30 1019.94 1019.09 1018.50 1018.28 1018.12 1018.54 1018.70 1019.36 1020.28 1021.02 1021.34 1021.74 1021.99 1022.16 1022.34 1022.60 1022.84 1023.06
1002.64 1003.22 1003.82 1004.44 1005.04 1005.51 1006.13 1006.71 1007.20 1007.71 1008.32 1008.72 1009.20 1009.40 1009.63 1009.98 1010.29 1010.53 1012.07 1013.14 1013.43 1014.74 1016.02 1016.58 1015.85 1016.04 1016.14 1016.36 1016.57 1016.86 1017.67 1018.55 1019.26 1019.71 1020.17 1020.32 1020.07 1019.26 1019.03 1018.86 1018.94 1019.40 1019.45 1020.04 1020.97 1021.69 1022.28 1022.75 1023.02 1023.24 1023.47 1023.76 1024.00 1024.38
1003.23 1003.80 1004.42 1005.01 1005.68 1006.22 1006.80 1007.36 1008.01 1008.58 1009.00 1009.44 1009.77 1010.10 1010.35 1010.76 1011.12 1011.69 1012.70 1013.68 1013.70 1014.24 1015.94 1016.75 1016.52 1016.50 1016.45 1016.62 1017.02 1017.30 1017.94 1018.84 1019.58 1020.05 1020.42 1020.34 1019.78 1019.54 1019.41 1019.43 1019.74 1019.99 1020.26 1020.50 1021.07 1021.52 1022.37 1023.26 1023.61 1024.00 1024.28 1024.78 1025.20 1025.54
1003.83 1004.57 1005.19 1005.94 1006.44 1006.94 1007.51 1008.06 1008.76 1009.34 1009.74 1010.06 1010.49 1010.91 1011.20 1011.56 1011.78 1012.28 1013.76 1014.14 1013.99 1014.26 1015.64 1017.12 1017.48 1017.16 1016.99 1017.12 1017.42 1017.90 1018.52 1019.15 1019.63 1020.12 1020.31 1020.02 1019.63 1019.52 1019.78 1020.06 1020.54 1020.58 1020.72 1020.86 1021.49 1022.21 1022.78 1023.58 1023.97 1024.58 1025.10 1025.62 1026.02 1026.42
1004.76 1005.34 1006.03 1006.55 1007.15 1007.69 1008.36 1009.07 1009.51 1010.08 1010.35 1010.78 1011.21 1011.58 1011.91 1012.06 1012.36 1013.48 1014.36 1014.56 1014.35 1014.55 1015.84 1017.62 1017.86 1017.45 1017.10 1017.46 1018.11 1018.66 1018.95 1019.51 1019.81 1020.25 1020.28 1020.10 1019.73 1019.56 1019.97 1020.39 1020.75 1021.02 1021.32 1021.67 1022.08 1022.62 1023.60 1024.06 1024.78 1025.42 1025.87 1026.48 1026.92 1027.46
1005.28 1006.03 1006.74 1007.42 1007.96 1008.64 1009.23 1009.70 1010.16 1010.66 1011.05 1011.46 1011.83 1012.21 1012.60 1012.88 1013.40 1014.19 1014.65 1014.54 1014.73 1015.46 1016.16 1017.60 1018.22 1017.70 1017.46 1018.05 1018.95 1019.47 1019.66 1019.98 1020.26 1020.44 1020.36 1020.24 1020.09 1020.22 1020.68 1020.80 1021.06 1021.46 1021.85 1022.28 1022.63 1022.81 1023.57 1024.53 1025.52 1026.20 1026.67 1027.19 1027.72 1028.26
1006.24 1006.93 1007.64 1008.19 1008.80 1009.33 1009.82 1010.32 1010.84 1011.27 1011.76 1012.20 1012.53 1012.74 1013.16 1014.05 1014.97 1015.23 1015.06 1014.97 1015.08 1015.99 1017.06 1017.90 1018.15 1018.25 1017.99 1018.79 1019.44 1019.86 1020.06 1020.76 1020.74 1020.71 1020.50 1020.58 1020.78 1021.07 1021.35 1021.37 1021.54 1021.81 1022.05 1022.75 1023.39 1023.80 1024.52 1025.24 1026.07 1026.67 1027.22 1027.85 1028.44 1029.11
1007.00 1007.69 1008.32 1008.90 1009.41 1009.90 1010.46 1011.02 1011.54 1011.98 1012.49 1012.84 1013.21 1013.75 1015.38 1015.56 1015.31 1015.39 1015.66 1015.78 1016.09 1016.86 1017.24 1018.20 1018.41 1018.43 1018.72 1019.47 1019.94 1020.44 1020.64 1020.94 1020.97 1020.74 1020.49 1020.79 1021.38 1021.82 1022.00 1022.13 1022.39 1022.53 1022.56 1023.24 1023.99 1024.78 1025.29 1025.92 1026.60 1027.35 1027.96 1028.54 1029.12 1029.83
1007.64 1008.29 1009.02 1009.64 1010.18 1010.67 1011.24 1011.71 1012.22 1012.78 1013.04 1013.66 1014.62 1015.42 1015.70 1015.60 1015.92 1016.30 1016.93 1017.21 1017.64 1018.12 1018.17 1018.44 1018.52 1018.62 1018.88 1019.27 1019.84 1020.46 1020.81 1021.09 1021.08 1020.82 1020.94 1021.57 1021.76 1022.09 1022.60 1022.92 1023.24 1023.41 1023.67 1024.20 1024.40 1024.61 1025.17 1025.90 1026.95 1027.81 1028.70 1029.38 1029.99 1030.56
1008.32 1009.08 1009.85 1010.36 1010.94 1011.47 1012.01 1012.40 1012.91 1013.54 1014.05 1014.08 1014.34 1015.27 1015.72 1016.12 1016.49 1016.91 1017.56 1017.95 1018.08 1018.51 1018.72 1018.86 1018.87 1018.78 1018.98 1019.12 1019.84 1020.58 1020.82 1021.14 1021.10 1021.00 1021.53 1022.16 1021.94 1022.32 1023.00 1023.64 1024.16 1024.53 1024.86 1025.28 1025.58 1026.00 1026.50 1027.09 1027.74 1028.56 1029.44 1030.18 1030.87 1031.48
1009.06 1009.74 1010.44 1011.16 1011.65 1012.18 1012.73 1013.10 1013.37 1013.88 1014.16 1014.64 1014.90 1015.88 1016.29 1017.00 1017.11 1017.52 1018.08 1018.41 1018.58 1018.55 1018.86 1018.96 1019.32 1019.09 1019.32 1019.46 1020.20 1020.40 1020.83 1021.33 1021.18 1021.70 1022.20 1022.15 1022.38 1022.99 1023.58 1024.30 1025.06 1025.62 1026.04 1026.52 1027.08 1027.47 1027.90 1028.44 1028.92 1029.63 1030.53 1031.35 1031.82 1032.40
1009.82 1010.46 1011.15 1011.81 1012.39 1012.95 1013.43 1013.87 1014.20 1014.40 1014.65 1015.76 1016.39 1016.87 1017.10 1017.52 1017.52 1017.76 1017.86 1017.96 1018.14 1018.19 1018.54 1018.82 1019.36 1019.36 1020.02 1020.24 1020.84 1021.02 1021.20 1021.13 1021.83 1022.84 1022.57 1022.28 1022.72 1023.51 1024.19 1024.93 1025.75 1026.72 1027.25 1027.78 1028.34 1028.75 1029.24 1029.78 1030.48 1031.05 1031.35 1031.84 1032.35 1033.22
1010.62 1011.22 1011.87 1012.60 1013.16 1013.68 1014.21 1014.44 1014.52 1014.98 1015.81 1016.84 1017.00 1017.55 1017.68 1017.58 1017.42 1017.28 1017.37 1017.68 1017.85 1018.09 1018.35 1018.82 1019.48 1019.92 1020.76 1020.94 1020.71 1020.97 1021.37 1021.94 1022.44 1022.56 1022.39 1022.61 1023.11 1024.01 1024.93 1025.74 1026.60 1027.59 1028.36 1028.96 1029.35 1029.80 1030.26 1030.64 1031.10 1031.78 1031.89 1032.22 1032.58 1032.92
1011.51 1012.18 1012.89 1013.33 1013.85 1014.36 1014.70 1014.89 1015.30 1016.03 1017.11 1017.56 1017.83 1018.11 1017.94 1017.63 1017.37 1017.24 1017.30 1017.52 1017.82 1017.99 1018.00 1018.64 1019.87 1020.52 1021.10 1021.00 1021.37 1021.34 1021.72 1022.14 1021.92 1022.50 1022.82 1023.38 1024.04 1024.78 1025.58 1026.40 1027.26 1028.04 1028.72 1029.30 1029.80 1030.21 1030.61 1031.05 1031.33 1031.68 1031.84 1032.07 1032.28 1032.50
1012.10 1012.97 1013.43 1014.12 1014.67 1015.07 1015.21 1015.80 1016.47 1017.39 1017.97 1018.21 1018.54 1018.44 1018.33 1018.14 1017.89 1017.46 1017.26 1017.48 1017.81 1018.02 1018.95 1019.30 1020.20 1020.60 1020.98 1021.32 1021.74 1021.57 1021.64 1021.70 1022.13 1022.79 1023.47 1024.12 1024.69 1025.46 1026.32 1027.08 1027.78 1028.39 1029.00 1029.52 1029.98 1030.32 1030.63 1030.80 1031.01 1031.22 1031.51 1031.52 1031.63 1031.79
1012.96 1013.58 1014.02 1014.54 1015.03 1015.56 1016.40 1016.83 1017.70 1018.19 1018.76 1019.02 1018.78 1018.84 1018.72 1018.18 1017.82 1017.56 1017.41 1017.55 1017.80 1018.29 1018.86 1019.15 1019.56 1020.67 1021.71 1021.77 1021.98 1021.46 1021.61 1022.24 1022.80 1023.47 1024.27 1025.03 1025.45 1026.09 1026.61 1027.28 1027.91 1028.44 1029.02 1029.53 1029.72 1030.06 1030.30 1030.58 1030.72 1030.87 1030.88 1030.95 1031.09 1031.26
1013.39 1014.07 1014.69 1015.17 1015.52 1016.22 1017.26 1017.72 1017.95 1018.62 1019.02 1019.09 1018.99 1019.00 1018.77 1018.54 1018.25 1018.00 1017.74 1017.68 1017.86 1018.02 1018.54 1019.24 1020.12 1021.07 1021.51 1021.33 1021.37 1021.90 1022.06 1022.64 1023.26 1024.27 1025.16 1025.51 1025.82 1026.35 1026.91 1027.48 1028.02 1028.53 1028.96 1029.30 1029.50 1029.76 1029.98 1030.07 1030.32 1030.39 1030.52 1030.74 1031.10 1031.29
1014.12 1014.76 1015.28 1015.62 1015.71 1016.57 1017.54 1018.34 1018.41 1018.62 1019.00 1019.16 1019.10 1019.10 1019.07 1019.01 1018.62 1018.30 1018.14 1018.08 1018.10 1018.34 1019.04 1019.97 1020.66 1020.59 1020.93 1021.04 1020.96 1021.22 1021.56 1022.39 1023.12 1024.42 1025.63 1026.16 1026.35 1026.71 1027.13 1027.48 1027.93 1028.32 1028.80 1029.10 1029.33 1029.49 1029.77 1030.03 1030.12 1030.29 1030.58 1030.94 1031.32 1031.68
1015.41 1015.93 1016.14 1016.37 1017.04 1017.31 1017.80 1018.41 1018.62 1018.62 1018.78 1019.07 1019.06 1019.18 1019.31 1019.15 1019.02 1018.76 1018.55 1018.38 1018.55 1019.10 1019.78 1019.88 1020.12 1020.13 1020.45 1020.61 1020.70 1020.96 1021.56 1022.06 1022.80 1023.43 1024.55 1025.81 1026.40 1026.76 1027.21 1027.54 1027.83 1028.30 1028.84 1029.21 1029.53 1029.92 1030.05 1030.34 1030.30 1030.58 1030.98 1031.42 1031.85 1032.12
1016.16 1016.61 1017.34 1017.57 1018.05 1018.14 1018.27 1018.23 1018.39 1018.57 1018.86 1018.86 1019.10 1019.32 1019.66 1019.91 1019.29 1018.93 1018.84 1018.97 1019.12 1019.02 1019.34 1019.62 1019.72 1020.11 1020.56 1020.76 1020.95 1021.16 1021.56 1022.17 1022.83 1023.48 1024.22 1024.96 1026.18 1026.82 1027.27 1027.63 1028.05 1028.55 1028.92 1029.30 1029.64 1030.12 1030.23 1030.40 1030.85 1031.26 1031.67 1032.25 1032.19 1032.32
1016.41 1016.92 1017.88 1018.23 1018.62 1018.70 1018.69 1018.38 1018.58 1018.72 1018.97 1019.00 1019.22 1019.52 1019.68 1019.54 1019.02 1019.01 1019.50 1019.30 1019.20 1019.09 1019.28 1019.47 1019.64 1019.94 1020.50 1020.93 1021.18 1021.58 1021.93 1022.43 1023.30 1023.98 1024.58 1025.16 1025.88 1026.48 1027.16 1027.65 1027.92 1028.57 1028.99 1029.34 1029.47 1029.88 1030.46 1030.92 1031.44 1031.99 1032.33 1032.66 1033.11 1033.29
1016.50 1017.55 1018.54 1018.90 1019.17 1019.32 1018.97 1018.80 1018.83 1018.96 1019.06 1019.25 1019.56 1019.83 1019.83 1019.68 1019.48 1019.96 1020.34 1020.11 1019.82 1019.88 1019.86 1019.84 1020.07 1020.66 1021.16 1021.54 1022.04 1022.20 1022.52 1022.98 1023.70 1024.50 1024.90 1025.43 1026.30 1027.03 1027.24 1027.73 1028.07 1028.45 1028.72 1029.23 1029.89 1030.53 1031.14 1031.68 1032.19 1032.64 1033.14 1033.50 1033.84 1034.08
1017.68 1019.06 1019.44 1019.70 1019.69 1019.82 1019.74 1019.57 1019.71 1019.75 1019.96 1019.95 1020.17 1020.18 1020.12 1020.03 1020.60 1021.06 1020.94 1020.78 1020.92 1020.78 1020.81 1020.52 1020.66 1020.92 1021.52 1022.11 1022.57 1022.81 1022.93 1023.20 1023.92 1024.91 1025.56 1025.66 1026.57 1027.25 1027.84 1028.25 1028.67 1028.98 1029.16 1029.68 1030.64 1031.23 1031.92 1032.46 1032.88 1033.35 1033.84 1034.19 1034.46 1034.74
1018.78 1019.52 1020.01 1019.75 1020.02 1020.07 1020.16 1020.56 1020.36 1020.40 1020.57 1020.56 1020.62 1020.65 1020.70 1021.16 1021.66 1021.60 1021.18 1021.23 1021.56 1021.38 1021.60 1021.26 1021.18 1021.62 1022.04 1022.22 1022.93 1023.29 1023.54 1023.58 1024.15 1025.15 1025.96 1026.09 1026.30 1026.76 1027.74 1028.46 1029.03 1029.61 1029.60 1029.83 1030.76 1031.71 1032.42 1032.99 1033.51 1034.01 1034.54 1034.93 1035.14 1035.34
1019.35 1019.72 1019.78 1019.62 1019.70 1019.90 1020.41 1020.66 1020.69 1021.03 1021.17 1021.34 1021.32 1021.76 1021.98 1022.53 1022.37 1021.87 1021.75 1021.58 1021.49 1021.40 1021.39 1021.16 1021.12 1021.42 1022.06 1022.82 1023.48 1023.87 1024.08 1024.22 1024.66 1025.60 1026.32 1026.68 1027.00 1027.18 1027.54 1028.31 1028.82 1029.45 1029.91 1030.37 1030.89 1031.65 1032.52 1033.32 1033.97 1034.56 1035.15 1035.71 1035.88 1036.04
1018.88 1019.26 1019.70 1019.90 1019.96 1020.07 1020.87 1021.38 1021.64 1021.49 1021.57 1021.11 1021.62 1022.53 1022.75 1022.94 1022.90 1022.98 1022.60 1022.25 1021.96 1021.88 1021.80 1021.79 1021.80 1022.00 1022.66 1023.43 1024.03 1024.54 1025.25 1025.61 1026.00 1026.48 1026.93 1027.66 1028.17 1028.32 1028.46 1028.76 1029.06 1029.71 1030.61 1031.08 1031.57 1031.86 1032.34 1033.05 1034.11 1034.97 1035.76 1036.46 1036.91 1036.55
1018.91 1018.92 1019.33 1020.04 1020.43 1020.56 1020.72 1021.17 1021.38 1021.48 1021.57 1021.71 1022.33 1022.56 1022.81 1023.16 1023.31 1023.37 1023.14 1022.77 1022.44 1022.34 1022.56 1022.75 1023.32 1023.34 1023.78 1024.36 1024.79 1025.16 1025.53 1025.86 1026.25 1027.06 1027.64 1028.71 1029.30 1029.89 1029.89 1029.97 1030.47 1030.98 1031.31 1031.68 1031.59 1032.28 1032.64 1033.07 1033.83 1034.99 1036.12 1036.89 1037.18 1037.28
1018.62 1018.69 1019.29 1019.94 1020.40 1020.57 1020.46 1020.89 1021.47 1021.88 1022.10 1022.29 1022.64 1023.23 1023.50 1023.58 1023.68 1023.50 1023.28 1023.10 1023.01 1022.85 1023.04 1023.34 1023.58 1023.78 1024.40 1024.75 1025.58 1026.25 1026.54 1026.59 1026.71 1027.08 1027.74 1028.53 1029.07 1029.86 1030.41 1030.87 1031.38 1031.97 1032.05 1032.01 1032.28 1032.50 1033.32 1034.40 1034.83 1035.93 1037.06 1037.74 1037.98 1038.28
1018.63 1018.97 1019.51 1019.98 1020.29 1020.55 1020.80 1021.21 1021.63 1022.06 1022.66 1022.98 1023.54 1023.92 1024.24 1024.22 1023.94 1023.85 1023.80 1023.62 1023.46 1023.36 1023.62 1024.11 1024.35 1024.45 1024.71 1025.12 1025.52 1026.13 1026.96 1027.26 1027.18 1027.26 1027.49 1028.11 1029.19 1030.12 1030.78 1031.46 1032.03 1032.20 1032.28 1032.67 1033.11 1033.67 1034.64 1035.71 1036.72 1037.78 1038.37 1038.90 1039.34 1039.47
1019.40 1019.80 1020.15 1020.67 1020.81 1020.87 1021.06 1021.42 1021.98 1022.54 1023.27 1023.82 1024.31 1024.43 1024.74 1024.92 1024.76 1024.43 1024.25 1023.98 1023.98 1024.30 1024.44 1024.47 1024.75 1025.18 1025.18 1025.50 1025.89 1026.26 1026.43 1027.44 1027.90 1028.24 1028.47 1029.16 1030.09 1030.91 1031.38 1031.87 1032.22 1032.34 1032.87 1033.49 1034.14 1034.83 1035.57 1036.70 1038.03 1038.64 1039.06 1039.42 1039.65 1039.74
1020.38 1020.59 1020.88 1021.25 1021.29 1021.30 1021.34 1021.64 1022.16 1022.91 1023.46 1024.38 1024.59 1024.98 1024.98 1024.86 1024.90 1025.03 1024.53 1024.36 1024.28 1024.31 1024.75 1025.09 1025.40 1025.80 1026.15 1026.43 1026.90 1027.45 1027.90 1028.40 1028.73 1029.07 1029.67 1030.34 1031.00 1031.57 1032.09 1032.40 1032.62 1033.03 1033.65 1034.48 1035.25 1035.88 1036.79 1037.64 1038.74 1039.27 1039.60 1039.83 1039.72 1039.62
Wind_Speed
23 23 22 20 23 22 23 23 23 22 21 20 18 17 17 15 10 6 2 4 5 4 2 2 3 5 4 3 4 3 4 4 4 4 1 1 1 2 1 2 2 3 4 3 2 3 1 12 3 3 5 5 6 7
22 21 22 19 22 22 23 22 21 21 19 19 18 17 17 15 11 6 5 2 3 7 4 0 2 2 4 7 6 1 5 2 3 4 1 1 2 2 3 2 3 3 3 3 5 3 4 6 11 9 5 5 3 5
21 21 21 20 19 22 22 21 20 19 19 18 17 17 17 15 13 9 4 2 5 5 4 4 5 4 3 2 3 6 1 3 2 3 3 2 1 0 2 2 2 2 3 3 1 3 5 6 7 7 6 5 5 6
21 19 20 22 22 21 21 21 20 20 19 19 17 17 17 17 17 11 5 2 4 4 5 1 2 4 3 4 4 4 6 5 4 2 2 2 1 1 1 2 3 2 2 4 4 5 6 6 5 6 8 9 10 10
18 19 21 22 21 21 20 20 20 20 19 19 18 18 19 21 21 12 5 3 3 5 5 3 1 4 2 5 7 6 5 3 2 2 2 1 1 2 1 2 2 3 2 0 1 5 3 4 3 5 6 6 6 7
21 21 23 23 19 20 19 20 19 19 19 19 18 17 16 13 7 5 6 4 4 3 6 4 2 4 3 5 7 5 3 3 2 2 1 2 2 2 2 2 3 3 3 1 4 4 7 8 6 5 8 7 8 8
23 23 22 22 21 21 20 19 20 20 19 19 19 17 13 12 6 5 4 3 2 2 5 4 2 3 4 4 3 3 3 2 2 1 1 0 2 3 1 2 6 6 8 9 10 9 6 2 4 7 10 9 10 8
23 23 22 21 21 20 18 19 18 19 19 19 18 17 17 16 9 5 4 4 3 5 4 4 1 3 3 2 2 2 2 3 4 1 1 1 2 2 2 6 8 8 9 5 4 7 8 10 9 7 7 6 7 6
23 22 21 21 21 20 19 18 20 21 19 19 15 10 6 7 4 2 3 6 3 5 4 3 5 4 2 2 2 3 2 2 2 1 1 2 1 1 0 5 8 9 4 8 7 9 9 9 8 6 5 5 6 5
21 22 21 21 20 19 19 19 20 19 18 11 6 5 4 2 3 4 6 4 5 4 4 3 1 3 3 1 2 2 1 1 1 2 1 1 1 2 2 4 5 4 8 10 9 5 7 6 6 5 5 4 5 4
22 22 22 20 19 19 18 19 20 15 8 4 4 3 2 1 3 3 3 3 1 3 1 2 2 4 1 3 2 0 2 0 1 2 3 1 2 5 5 6 5 6 7 6 5 5 4 8 8 8 7 6 6 5
23 24 23 19 19 19 20 19 12 5 1 4 5 4 3 2 2 5 2 2 1 2 1 4 3 2 2 3 4 1 2 2 2 1 2 2 3 5 8 8 7 7 7 8 7 9 8 9 7 7 6 5 4 5
22 23 22 20 19 20 19 11 14 18 5 3 4 4 3 3 5 3 4 1 1 2 3 2 2 3 2 3 3 1 3 4 1 2 4 5 3 6 7 8 8 6 7 8 8 8 8 7 7 5 6 3 4 4
20 21 21 20 20 20 16 17 10 4 4 5 4 4 3 1 2 3 3 3 3 3 4 3 3 3 1 2 3 5 4 1 2 1 6 3 6 7 7 6 7 4 6 7 6 6 7 7 5 4 5 3 4 2
20 19 20 20 20 19 16 11 8 4 4 4 3 3 1 2 2 1 3 1 2 2 3 3 4 3 1 3 1 1 2 1 5 6 4 3 8 8 8 6 7 6 5 5 3 5 6 5 5 4 1 3 3 3
22 16 7 21 20 16 12 7 5 3 3 3 3 2 2 1 2 1 1 1 2 2 2 4 3 4 1 4 3 4 3 5 5 3 2 3 7 6 6 5 6 6 6 6 5 5 5 5 5 4 2 3 3 4
10 3 19 20 19 15 13 5 4 5 3 2 2 1 1 0 2 2 1 2 2 2 2 3 4 6 2 2 1 4 5 4 2 1 2 2 7 7 6 6 6 6 6 6 5 4 4 4 4 2 1 2 4 4
5 16 24 21 9 6 3 3 3 3 4 1 2 2 2 2 2 1 2 1 2 2 3 3 4 3 5 4 4 4 2 2 2 1 2 2 5 5 6 8 6 6 6 5 4 4 4 4 3 2 2 3 3 3
13 15 19 13 5 5 3 3 3 3 0 1 1 1 1 2 1 1 2 2 0 1 4 2 4 2 4 4 3 2 2 3 3 2 2 2 4 7 6 6 6 5 6 5 4 3 3 4 3 2 2 1 1 1
23 20 14 11 6 3 3 2 1 2 1 3 0 0 1 1 2 0 1 1 1 2 2 1 4 4 4 3 3 3 3 5 5 4 2 1 1 5 5 6 5 5 4 3 3 3 2 0 1 2 2 2 2 2
12 6 12 6 4 5 3 2 1 1 2 1 1 1 1 2 2 2 2 2 3 1 2 3 3 2 1 0 1 3 5 6 4 4 5 4 2 4 4 3 4 3 3 2 3 1 2 2 2 2 3 2 2 1
4 8 3 4 3 3 1 2 2 2 2 1 2 1 1 0 1 1 1 1 2 3 4 3 2 3 2 1 1 3 5 6 5 5 6 10 6 4 3 3 4 3 2 3 3 3 2 1 2 3 3 1 1 2
9 4 3 2 4 4 3 1 2 1 2 2 2 1 2 1 1 2 2 2 3 1 2 2 3 3 5 4 5 6 5 7 5 4 4 4 5 4 4 2 3 4 2 1 1 3 3 3 3 3 2 3 3 3
3 4 4 3 3 2 2 0 1 2 1 2 2 1 1 1 2 1 3 3 3 2 1 2 4 4 4 4 2 2 3 4 6 4 3 7 5 2 3 3 2 2 2 4 3 4 3 3 3 4 3 3 3 2
7 5 5 1 3 1 3 3 3 2 1 2 2 1 1 2 2 2 3 4 3 3 2 2 3 3 4 1 1 2 3 5 7 6 1 5 6 5 5 4 4 3 2 4 3 3 2 2 3 4 3 3 3 3
2 3 4 5 2 2 3 2 3 5 3 2 1 2 3 3 1 5 3 1 2 2 2 4 4 2 2 2 3 2 2 3 6 5 1 3 5 7 6 5 3 1 2 3 5 4 4 3 3 4 3 3 3 2
2 4 2 2 1 2 2 0 1 3 3 5 3 3 3 2 5 4 1 2 2 2 2 2 2 2 4 4 4 4 4 5 6 6 5 5 4 3 4 6 4 3 3 4 4 5 6 5 4 3 3 2 2 1
4 4 5 4 2 1 4 1 3 5 4 2 4 3 7 8 5 3 2 3 3 2 4 5 5 4 6 5 6 7 7 8 10 9 8 8 6 5 5 5 6 9 5 4 5 5 5 5 5 4 4 4 2 3
2 2 4 3 1 1 4 6 5 3 2 3 5 4 4 2 2 1 3 3 3 2 2 4 4 5 7 6 6 5 5 6 8 6 5 3 2 2 3 4 5 4 4 5 6 6 8 6 6 6 5 5 3 2
4 3 4 3 4 5 3 3 2 2 0 2 3 2 2 3 3 1 2 2 1 2 2 2 3 3 6 7 7 5 3 3 2 4 5 5 5 5 4 4 4 3 2 5 6 8 9 6 5 5 4 4 4 4
3 2 3 2 3 1 1 2 1 2 3 2 2 3 3 2 3 2 2 2 1 2 5 4 4 3 6 6 6 6 3 2 3 5 5 8 8 6 4 4 3 3 4 5 5 4 4 4 3 4 5 5 4 3
2 2 4 3 2 0 1 1 1 2 0 2 1 1 2 3 2 2 3 2 3 3 2 4 6 2 4 5 5 5 7 6 5 6 9 8 6 5 5 4 4 4 6 6 6 5 6 7 5 4 4 3 2 3
3 2 2 2 1 1 2 2 2 1 2 0 2 2 3 3 5 3 3 2 1 3 4 4 5 6 7 8 8 7 8 8 11 13 13 12 9 7 5 4 5 6 8 7 6 5 6 7 4 4 4 3 2 3
Wind_Direction
141 136 130 127 128 125 121 121 122 124 121 113 107 103 104 95 85 82 106 15 101 90 52 32 112 123 83 96 134 233 56 353 35 62 70 3 357 343 299 40 13 54 318 10 340 54 28 355 7 53 95 75 80 72
134 133 128 128 128 128 122 121 120 115 112 107 101 97 96 96 88 89 77 14 28 81 136 87 38 60 104 167 131 37 145 107 162 93 67 88 353 352 311 99 17 57 47 21 4 72 48 20 60 56 53 90 89 102
133 132 134 134 126 126 121 119 119 117 114 108 106 98 92 92 82 93 101 31 57 86 40 61 44 15 86 116 162 115 1 141 91 166 154 154 100 190 346 75 104 92 36 87 186 95 76 62 41 58 61 75 45 96
133 139 143 144 135 125 123 121 119 115 114 112 106 94 92 89 80 78 80 352 77 113 103 20 357 51 82 133 77 84 119 67 96 90 100 129 133 357 10 47 63 4 343 100 76 111 103 76 56 96 79 76 72 59
139 129 134 129 124 122 120 123 123 117 112 116 108 100 96 97 91 82 77 35 52 111 139 136 357 10 153 126 109 86 82 91 82 62 60 221 213 78 52 41 66 9 28 32 119 137 94 105 89 108 90 79 80 92
124 126 130 130 130 122 123 124 126 121 112 109 112 107 99 90 75 61 48 350 9 70 94 97 298 4 81 104 98 92 102 96 95 119 220 278 257 99 88 83 75 57 47 274 121 81 96 108 104 98 99 91 80 79
129 130 133 126 122 122 124 129 129 123 113 107 106 99 90 78 60 69 146 200 4 51 82 79 45 328 78 90 59 55 47 69 93 104 36 61 350 69 82 129 129 98 99 99 109 108 77 62 122 100 101 93 91 84
125 122 123 123 121 122 123 123 121 122 113 108 106 92 89 94 82 45 10 57 63 85 67 101 74 105 15 78 71 353 65 32 13 146 20 66 18 70 85 127 131 129 123 112 76 81 104 106 101 104 106 111 97 92
128 127 126 124 122 121 121 119 120 119 115 112 102 87 62 41 55 68 79 70 59 103 107 87 138 162 21 62 105 45 68 48 295 78 263 85 339 171 163 141 151 154 163 143 108 109 122 121 121 116 111 104 113 109
132 129 126 126 124 123 123 123 125 120 115 95 51 49 37 354 312 39 7 29 18 358 40 96 313 111 93 330 357 92 21 151 100 260 98 92 132 101 31 88 91 73 108 126 123 128 127 131 132 117 105 98 110 111
134 127 127 126 126 125 127 127 121 113 52 42 57 59 208 179 57 34 62 77 17 28 50 109 121 120 357 106 171 73 176 256 82 242 139 258 244 179 142 105 81 71 80 69 73 79 112 137 142 134 120 110 111 116
134 133 133 130 127 127 128 124 100 62 70 147 118 115 76 63 50 85 57 99 106 170 136 127 188 147 99 85 93 205 113 22 198 174 139 278 246 134 139 129 105 96 92 80 77 95 96 105 111 114 116 110 97 103
133 134 138 132 129 131 125 100 105 119 103 42 52 75 83 329 72 150 160 245 233 182 183 142 116 117 57 38 64 115 84 216 202 54 226 226 168 146 132 127 114 97 101 101 91 88 93 89 79 98 109 88 120 105
135 138 133 128 129 128 116 119 106 65 67 60 63 72 95 127 161 183 187 189 237 126 134 117 93 104 93 89 166 94 238 194 77 4 239 220 166 151 135 130 123 122 105 105 100 91 98 101 98 74 97 118 111 119
133 131 128 126 125 114 110 89 65 47 73 68 53 94 110 229 239 243 212 101 103 134 119 75 57 86 24 91 171 150 137 261 209 228 235 207 149 144 144 137 133 134 133 129 131 122 129 128 118 110 158 168 134 141
129 112 113 131 124 109 98 64 37 67 52 64 80 59 331 331 2 97 92 95 106 160 106 59 105 59 305 133 84 202 174 226 249 225 237 133 137 138 138 132 133 135 141 142 138 134 131 134 141 159 160 188 200 193
93 51 133 120 108 80 54 60 42 43 92 31 354 2 243 37 237 313 17 99 101 69 145 107 93 201 113 43 278 176 212 218 222 181 116 135 158 150 132 125 135 141 142 141 137 137 145 152 149 136 101 259 223 225
80 127 124 120 102 69 38 42 84 63 61 11 30 305 309 260 315 28 49 101 103 113 127 199 142 101 162 175 261 239 156 98 39 85 150 116 120 119 137 143 147 144 144 152 144 145 135 145 162 219 243 275 278 262
134 136 129 118 103 99 86 9 64 84 124 247 317 306 308 309 40 347 3 28 91 193 113 51 81 185 226 216 210 216 192 170 152 144 87 59 125 140 138 132 136 133 147 152 156 162 174 189 205 219 242 256 179 203
131 131 112 72 62 69 86 53 33 110 161 238 320 75 121 220 258 345 334 28 55 42 46 118 206 215 183 227 195 187 157 137 128 95 65 24 109 134 146 150 157 149 136 129 127 124 130 299 255 231 158 142 110 295
94 80 46 48 36 38 81 127 110 192 140 168 209 98 293 3 12 42 352 326 55 218 227 216 208 236 193 323 166 120 132 147 166 146 162 162 192 144 137 134 131 122 130 145 153 174 133 206 223 137 128 97 58 299
80 90 82 12 69 30 4 203 128 154 115 173 120 145 128 350 185 48 319 51 238 236 178 176 191 147 135 139 143 113 122 107 101 92 85 117 146 146 151 150 125 147 151 178 165 182 209 167 115 83 88 61 17 29
112 75 67 53 50 41 300 76 89 151 108 195 114 95 307 261 148 55 286 243 255 254 168 144 132 105 113 99 99 106 113 122 109 108 111 109 111 115 118 135 134 134 145 267 173 139 132 115 100 95 89 59 32 11
91 74 108 136 102 276 322 292 159 146 83 159 147 179 228 188 65 22 246 252 272 303 49 102 121 94 65 81 85 122 101 104 104 85 101 121 114 60 100 118 100 94 114 113 87 93 84 74 90 85 57 80 39 45
75 306 95 297 313 23 21 19 8 74 203 232 109 299 201 81 105 236 235 271 328 333 340 53 76 60 121 110 83 78 81 135 133 127 21 107 111 97 81 70 65 57 82 106 101 108 95 91 70 89 85 87 73 21
131 261 134 190 257 166 188 148 196 189 178 224 273 356 31 87 59 246 243 302 274 250 211 169 146 111 65 101 132 128 178 123 115 100 63 147 150 146 147 145 139 309 13 126 126 123 119 109 103 100 76 54 52 53
234 263 230 228 201 142 38 351 54 108 166 174 178 172 86 149 244 249 323 30 326 15 275 221 173 134 134 119 88 57 54 57 81 102 88 65 53 55 136 153 168 185 133 118 120 134 140 141 130 115 95 42 32 94
203 157 162 209 192 127 152 139 179 215 227 220 98 173 179 194 234 241 236 283 335 34 42 43 42 81 100 99 109 109 89 96 97 101 94 63 47 37 56 80 90 103 101 99 113 111 118 131 132 130 122 116 69 11
182 195 111 145 168 198 209 193 215 226 197 143 158 214 226 233 211 246 284 317 312 120 69 95 55 87 85 78 70 83 115 134 128 114 102 128 70 41 15 79 93 90 98 102 103 107 116 114 116 116 120 121 137 84
194 168 127 149 186 220 238 157 218 227 30 135 124 72 12 322 256 254 286 315 239 162 137 123 119 108 133 130 125 89 38 31 71 136 149 172 182 136 137 125 115 111 104 108 104 101 81 67 71 50 53 47 36 41
125 94 85 147 218 232 192 141 118 81 43 60 360 119 188 246 313 335 10 320 148 91 110 104 87 104 126 137 139 130 106 1 58 84 95 107 117 123 126 118 116 115 104 110 108 99 102 68 78 88 79 76 49 56
76 139 133 169 237 226 160 110 138 132 105 88 284 43 19 52 243 290 329 7 92 100 137 132 127 107 92 88 73 63 84 110 102 104 107 106 102 102 106 102 98 94 94 91 90 92 93 104 99 94 106 94 56 28
73 69 81 100 84 229 223 169 191 259 21 350 268 196 204 178 223 250 312 13 193 144 121 90 81 79 80 85 94 91 84 85 88 88 87 91 98 101 93 88 89 91 95 95 92 101 103 107 96 100 103 81 37 5